CAPE
22 18 23 23 25 17 14 7 2 2 1 0 0 0 0 0 2 0 0 0 0 0 0 0 0 0 0 0 0 0 0 0 0 8 0 0 0 0 3 390 254 192 311 131 37
29 38 33 33 25 21 16 10 6 3 2 1 0 0 0 0 0 0 0 0 0 0 0 0 0 0 0 0 0 0 0 0 0 0 0 0 0 2 221 351 412 357 281 97 0
50 48 54 41 15 16 9 4 2 1 1 1 0 0 0 0 0 0 0 0 0 0 0 0 0 0 0 0 0 0 0 0 0 0 0 0 0 0 186 332 424 299 247 1 0
18 21 20 7 7 15 11 5 2 1 0 1 2 0 0 0 0 0 0 0 0 0 0 0 0 0 0 0 0 0 0 0 0 0 4 3 0 24 0 27 418 237 0 0 0
20 11 10 7 8 8 11 6 3 1 0 0 4 2 0 0 0 0 0 0 0 0 0 0 0 0 0 0 0 0 0 0 0 0 0 0 0 0 0 0 116 0 0 0 0
29 32 23 10 9 12 12 7 3 1 1 0 4 3 0 0 0 0 0 0 0 0 0 0 0 0 0 0 0 0 0 0 0 0 0 0 0 0 0 0 0 0 0 0 0
21 22 17 12 10 10 9 4 2 0 0 0 3 0 0 0 0 0 0 0 0 0 0 0 0 0 0 0 0 0 0 0 0 0 0 0 0 0 0 0 0 0 0 0 0
25 23 17 9 13 9 4 1 0 0 1 1 4 0 0 0 0 0 0 0 0 0 0 0 0 0 0 0 0 0 0 0 0 0 0 0 0 0 0 0 0 0 0 0 0
28 24 20 19 14 9 5 3 0 1 0 0 0 0 0 0 0 0 0 0 0 0 0 0 0 0 0 0 0 0 0 0 0 0 0 0 0 0 0 0 0 0 0 0 0
32 22 20 32 23 9 1 0 0 0 0 0 0 0 0 0 0 0 0 0 0 0 0 0 0 0 0 0 0 0 0 0 0 0 0 0 0 0 0 0 0 0 0 0 0
26 13 17 36 22 7 0 0 0 0 0 0 0 0 0 0 0 0 0 0 0 0 0 0 0 0 0 0 0 0 0 0 0 0 0 0 0 0 0 0 0 0 0 0 0
22 15 21 20 16 0 0 0 1 0 2 0 0 0 0 0 0 0 0 0 0 0 0 0 0 0 0 0 0 0 0 0 0 0 0 0 0 0 0 0 0 0 0 0 0
23 14 19 19 4 0 0 0 0 0 2 0 0 0 0 0 0 0 0 0 0 0 0 0 0 0 0 0 0 0 0 0 0 0 0 0 0 0 0 0 0 0 0 0 0
27 23 31 41 0 0 0 0 0 0 0 0 0 0 0 0 0 0 0 0 0 0 0 0 0 0 0 0 0 0 0 0 0 0 0 0 0 0 0 0 0 0 0 0 0
22 16 26 22 3 0 0 0 0 0 0 0 0 0 0 0 0 0 0 0 0 0 0 0 0 0 0 0 0 0 0 0 0 0 0 0 0 0 0 0 0 0 0 0 0
20 9 19 0 0 0 0 0 0 0 0 0 0 0 0 0 0 0 0 0 0 0 0 0 0 0 0 0 0 0 0 0 0 0 0 0 0 0 0 0 0 0 0 0 0
18 3 1 0 0 0 0 0 0 0 0 0 0 0 0 0 0 0 0 0 0 0 0 0 0 0 0 0 0 0 0 0 0 0 0 0 0 0 0 0 0 0 0 0 0
21 2 0 0 0 0 0 35 0 0 0 0 0 0 0 0 0 0 0 0 0 0 0 0 0 0 0 0 0 0 0 0 0 0 0 0 0 0 0 0 0 0 0 0 0
0 0 0 0 0 0 0 8 0 1 0 0 0 0 0 0 0 0 0 0 0 0 0 0 0 0 0 0 0 0 0 0 0 0 0 0 0 0 0 0 0 0 0 0 0
0 0 0 0 0 16 4 1 0 0 0 0 0 0 0 0 0 0 0 0 0 0 0 0 0 0 0 0 0 0 0 0 0 0 0 0 0 0 0 0 0 0 0 0 0
0 0 0 0 0 29 2 0 0 0 0 0 0 0 0 0 0 0 0 0 0 0 0 0 0 0 0 0 0 0 0 0 0 0 0 0 0 0 0 0 0 0 0 0 0
0 0 0 0 8 0 0 0 17 0 0 0 0 0 0 0 0 0 0 0 0 0 0 0 0 0 0 0 0 0 0 0 0 0 0 0 0 0 0 0 0 0 0 0 0
0 0 0 5 0 0 0 0 12 6 0 0 0 0 0 0 0 0 0 0 0 0 0 0 0 0 0 0 0 0 0 0 0 0 0 0 0 0 0 0 0 0 0 0 0
0 0 0 0 0 0 0 0 4 0 0 0 0 0 0 0 0 0 0 0 0 0 0 0 0 0 0 0 0 0 0 0 0 0 0 0 0 0 0 0 0 0 0 0 0
0 0 5 0 0 0 0 1 0 2 0 1 1 2 3 0 0 0 0 0 0 0 0 0 0 0 0 0 0 0 0 0 0 0 0 0 0 0 0 0 0 0 0 0 0
0 0 0 0 0 0 0 0 6 0 0 1 0 0 2 1 2 2 0 0 0 0 0 0 0 0 0 0 0 0 0 0 0 0 0 0 0 0 0 0 0 0 0 0 0
6 0 2 0 0 0 0 0 0 0 0 0 0 15 0 0 0 0 0 0 0 0 0 0 0 0 0 0 0 0 0 0 0 0 0 0 0 0 0 0 0 0 0 0 0
CIN
-0 -0 -0 -0 -0 -0 -0 -0 -0 -0 -0 -0 -0 -0 -0 -0 -0 -0 -0 -0 -0 -0 -0 -0 -0 -0 -0 -0 -0 -0 -0 -0 -0 -335 -0 -0 -0 -0 -81 -109 -113 -79 -71 -94 -76
-0 -0 -0 -0 -0 -0 -0 -0 -0 -0 -0 -0 -0 -0 -0 -0 -0 -0 -0 -0 -0 -0 -0 -0 -0 -0 -0 -0 -0 -0 -0 -0 -0 -0 -0 -0 -0 -124 -145 -110 -55 -56 -98 -180 -9
-0 -0 -0 -0 -0 -0 -0 -0 -0 -0 -0 -0 -0 -0 -0 -0 -0 -0 -0 -0 -0 -0 -0 -0 -0 -0 -0 -0 -0 -0 -0 -0 -0 -0 -0 -0 -0 -0 -160 -80 -114 -163 -138 -54 -0
-0 -0 -0 -0 -0 -0 -0 -0 -0 -0 -0 -0 -0 -0 -0 -0 -0 -0 -0 -0 -0 -0 -0 -0 -0 -0 -0 -0 -0 -0 -0 -0 -0 -26 -455 -417 -0 -349 -0 -305 -138 -170 -0 -0 -0
-0 -0 -0 -0 -0 -0 -0 -0 -0 -0 -0 -0 -0 -0 -0 -0 -0 -0 -0 -0 -0 -0 -0 -0 -0 -0 -0 -0 -0 -0 -0 -0 -0 -0 -0 -0 -0 -0 -0 -0 -132 -0 -0 -0 -0
-0 -0 -0 -0 -0 -0 -0 -0 -0 -0 -0 -0 -0 -0 -0 -0 -0 -0 -0 -0 -0 -0 -0 -0 -0 -0 -0 -0 -0 -0 -0 -0 -0 -0 -0 -0 -0 -0 -0 -0 -0 -0 -0 -0 -0
-0 -0 -0 -0 -0 -0 -0 -0 -0 -0 -0 -0 -0 -0 -0 -0 -0 -0 -0 -0 -0 -0 -0 -0 -0 -0 -0 -0 -0 -0 -0 -0 -0 -0 -0 -0 -0 -0 -0 -0 -0 -0 -0 -0 -0
-0 -0 -0 -0 -0 -0 -0 -0 -0 -0 -0 -0 -0 -0 -0 -0 -0 -0 -0 -0 -0 -0 -0 -0 -0 -0 -0 -0 -0 -0 -0 -0 -0 -0 -0 -0 -0 -0 -0 -0 -0 -0 -0 -0 -0
-0 -0 -0 -0 -0 -0 -0 -0 -0 -0 -0 -0 -0 -0 -0 -0 -0 -0 -0 -0 -0 -0 -0 -0 -0 -0 -0 -0 -0 -0 -0 -0 -0 -0 -0 -0 -0 -0 -0 -0 -0 -0 -0 -0 -0
-0 -0 -0 -0 -0 -0 -0 -0 -0 -0 -0 -0 -0 -0 -0 -0 -0 -0 -0 -0 -0 -0 -0 -0 -0 -0 -0 -0 -0 -0 -0 -0 -0 -0 -0 -0 -0 -0 -0 -0 -0 -0 -0 -0 -0
-0 -0 -0 -0 -0 -0 -0 -0 -0 -0 -0 -0 -0 -0 -0 -0 -0 -0 -0 -0 -0 -0 -0 -0 -0 -0 -0 -0 -0 -0 -0 -0 -0 -0 -0 -0 -0 -0 -0 -0 -0 -0 -0 -0 -0
-0 -0 -0 -0 -0 -0 -0 -0 -0 -0 -0 -0 -0 -0 -0 -0 -0 -0 -0 -0 -0 -0 -0 -0 -0 -0 -0 -0 -0 -0 -0 -0 -0 -0 -0 -0 -0 -0 -0 -0 -0 -0 -0 -0 -0
-0 -0 -0 -0 -0 -0 -0 -0 -0 -0 -0 -0 -0 -0 -0 -0 -0 -0 -0 -0 -0 -0 -0 -0 -0 -0 -0 -0 -0 -0 -0 -0 -0 -0 -0 -0 -0 -0 -0 -0 -0 -0 -0 -0 -0
-0 -0 -0 -0 -0 -0 -0 -0 -0 -0 -0 -0 -0 -0 -0 -0 -0 -0 -0 -0 -0 -0 -0 -0 -0 -0 -0 -0 -0 -0 -0 -0 -0 -0 -0 -0 -0 -0 -0 -0 -0 -0 -0 -0 -0
-0 -0 -0 -0 -0 -0 -0 -0 -0 -0 -0 -0 -0 -0 -0 -0 -0 -0 -0 -0 -0 -0 -0 -0 -0 -0 -0 -0 -0 -0 -0 -0 -0 -0 -0 -0 -0 -0 -0 -0 -0 -0 -0 -0 -0
-0 -0 -0 -0 -0 -0 -0 -0 -0 -0 -0 -0 -0 -0 -0 -0 -0 -0 -0 -0 -0 -0 -0 -0 -0 -0 -0 -0 -0 -0 -0 -0 -0 -0 -0 -0 -0 -0 -0 -0 -0 -0 -0 -0 -0
-0 -0 -0 -0 -0 -0 -0 -0 -0 -0 -0 -0 -0 -0 -0 -0 -0 -0 -0 -0 -0 -0 -0 -0 -0 -0 -0 -0 -0 -0 -0 -0 -0 -0 -0 -0 -0 -0 -0 -0 -0 -0 -0 -0 -0
-0 -0 -0 -0 -0 -0 -0 -6 -0 -0 -0 -0 -0 -0 -0 -0 -0 -0 -0 -0 -0 -0 -0 -0 -0 -0 -0 -0 -0 -0 -0 -0 -0 -0 -0 -0 -0 -0 -0 -0 -0 -0 -0 -0 -0
-0 -0 -0 -0 -0 -0 -1 -1 -0 -0 -0 -0 -0 -0 -0 -0 -0 -0 -0 -0 -0 -0 -0 -0 -0 -0 -0 -0 -0 -0 -0 -0 -0 -0 -0 -0 -0 -0 -0 -0 -0 -0 -0 -0 -0
-0 -0 -0 -0 -0 -15 -6 -0 -0 -1 -0 -0 -0 -0 -0 -0 -0 -0 -0 -0 -0 -0 -0 -0 -0 -0 -0 -0 -0 -0 -0 -0 -0 -0 -0 -0 -0 -0 -0 -0 -0 -0 -0 -0 -0
-0 -0 -0 -0 -0 -10 -0 -5 -0 -0 -0 -0 -0 -0 -0 -0 -0 -0 -0 -0 -0 -0 -0 -0 -0 -0 -0 -0 -0 -0 -0 -0 -0 -0 -0 -0 -0 -0 -0 -0 -0 -0 -0 -0 -0
-0 -0 -0 -0 -6 -0 -0 -0 -6 -0 -0 -0 -0 -0 -0 -0 -0 -0 -0 -0 -0 -0 -0 -0 -0 -0 -0 -0 -0 -0 -0 -0 -0 -0 -0 -0 -0 -0 -0 -0 -0 -0 -0 -0 -0
-0 -0 -0 -6 -0 -0 -0 -1 -0 -3 -0 -0 -0 -0 -0 -0 -0 -0 -0 -0 -0 -0 -0 -0 -0 -0 -0 -0 -0 -0 -0 -0 -0 -0 -0 -0 -0 -0 -0 -0 -0 -0 -0 -0 -0
-0 -0 -0 -0 -0 -0 -0 -0 -0 -0 -1 -0 -3 -0 -0 -0 -0 -0 -0 -0 -0 -0 -0 -0 -0 -0 -0 -0 -0 -0 -0 -0 -0 -0 -0 -0 -0 -0 -0 -0 -0 -0 -0 -0 -0
-0 -0 -0 -0 -0 -0 -0 -0 -0 -0 -0 -0 -17 -0 -0 -0 -0 -0 -0 -0 -0 -0 -0 -0 -0 -0 -0 -0 -0 -0 -0 -0 -0 -0 -0 -0 -0 -0 -0 -0 -0 -0 -0 -0 -0
-0 -0 -0 -0 -0 -0 -0 -0 -0 -0 -0 -0 -0 -0 -0 -0 -0 -0 -0 -0 -0 -0 -0 -0 -0 -0 -0 -0 -0 -0 -0 -0 -0 -0 -0 -0 -0 -0 -0 -0 -0 -0 -0 -0 -0
-23 -0 -0 -0 -0 -0 -0 -0 -0 -0 -0 -0 -0 -0 -0 -0 -0 -0 -0 -0 -0 -0 -0 -0 -0 -0 -0 -0 -0 -0 -0 -0 -0 -0 -0 -0 -0 -0 -0 -0 -0 -0 -0 -0 -0
Wind_Speed
16 16 16 16 16 17 17 18 18 19 19 19 19 19 18 19 19 4 8 12 7 6 3 5 2 1 3 1 2 3 6 4 7 8 6 6 4 3 2 10 4 2 9 15 12
17 18 16 17 17 17 18 18 19 19 20 20 19 19 18 17 5 9 13 11 10 8 5 1 0 1 3 1 2 5 4 11 7 7 7 9 5 6 5 5 4 9 17 25 17
19 18 19 19 19 19 19 19 20 20 21 20 20 19 18 13 4 8 3 13 11 9 3 2 1 1 3 3 2 3 4 5 1 7 6 7 4 3 11 1 4 21 15 15 10
21 21 21 21 21 21 21 20 21 21 21 20 19 19 19 1 4 3 5 12 9 7 5 4 2 1 3 6 4 5 3 3 6 5 7 9 8 6 3 3 14 16 15 12 15
22 22 22 23 23 23 23 23 23 22 22 20 18 16 7 1 10 6 7 13 7 5 6 5 5 4 4 4 5 3 2 5 6 9 7 6 6 6 4 4 15 17 15 15 11
22 21 23 23 24 24 24 24 24 23 22 20 16 11 2 4 2 7 6 6 5 5 5 5 6 4 2 2 3 4 7 5 7 6 5 9 5 6 1 9 16 16 15 14 13
21 23 23 24 25 26 26 27 26 25 24 21 13 4 3 15 4 7 4 4 6 5 6 4 4 3 3 5 5 5 10 8 6 3 4 5 6 4 6 11 16 15 13 12 9
22 24 25 25 26 27 28 28 28 29 23 11 8 4 9 5 1 3 5 1 3 4 2 3 5 4 1 5 5 6 6 7 4 2 3 3 2 2 6 10 10 15 10 8 7
22 23 24 25 26 26 28 29 30 14 5 10 5 3 11 5 3 5 7 4 5 3 4 1 4 3 4 6 5 5 7 5 4 4 4 3 4 5 6 8 9 6 12 11 7
23 23 25 25 25 27 30 30 18 3 3 2 2 1 5 2 4 4 4 5 2 4 2 4 5 4 4 4 10 5 7 3 6 8 3 4 4 7 6 8 10 8 4 10 8
25 26 26 27 28 29 19 7 6 4 1 8 4 4 4 8 4 5 7 7 3 4 6 0 5 8 10 7 6 7 8 7 3 5 6 1 5 8 6 6 8 8 6 6 11
23 26 27 29 30 22 4 3 6 5 11 10 16 14 13 2 5 4 9 7 6 6 5 4 7 9 6 6 7 7 7 4 4 4 6 4 2 2 5 4 7 12 9 9 6
24 25 27 28 27 5 5 6 8 8 6 9 7 7 7 8 7 7 11 7 6 7 7 8 4 13 8 6 8 4 11 6 8 5 5 8 2 4 4 4 7 6 8 10 15
25 25 24 26 7 7 6 9 11 4 3 8 6 10 8 9 7 9 8 8 4 11 9 6 4 6 9 8 8 7 6 11 14 7 6 3 5 6 10 12 7 9 11 13 11
26 26 24 21 7 4 7 12 12 3 5 2 4 1 5 12 6 7 6 4 10 8 9 9 8 9 5 8 10 7 14 10 9 6 6 1 2 5 8 8 13 18 13 12 12
26 27 27 7 1 8 10 11 1 8 9 7 1 3 4 4 4 4 5 4 6 6 2 7 2 7 11 5 9 8 11 8 6 4 1 9 7 5 9 21 24 13 15 14 12
27 28 19 3 5 3 6 3 6 5 7 7 5 4 3 6 5 7 12 11 9 7 6 4 11 3 4 8 2 6 9 3 2 1 5 4 4 13 10 8 17 23 18 16 16
28 26 4 3 4 3 3 2 2 4 5 6 6 11 9 6 7 5 13 14 6 6 6 8 5 12 7 8 9 6 9 7 6 5 3 4 8 8 10 11 14 9 12 14 16
24 5 4 4 3 3 1 3 7 3 6 10 12 4 2 4 6 3 8 14 13 9 7 6 7 3 7 6 14 6 5 8 9 3 4 5 8 8 5 6 8 12 18 20 20
6 4 4 7 2 1 1 5 2 3 7 5 4 6 6 7 2 8 8 7 5 9 3 6 3 5 7 7 3 10 11 5 3 8 4 3 6 7 4 8 8 12 18 18 18
4 4 4 8 1 2 2 3 4 4 7 6 5 6 4 4 5 2 7 3 13 11 7 5 4 3 8 8 9 5 4 5 8 4 7 3 8 8 12 10 16 16 17 20 20
3 4 6 7 2 1 1 5 6 4 6 6 4 6 3 5 5 4 4 7 8 10 20 8 3 4 6 2 4 7 9 7 8 5 0 6 9 2 4 7 9 6 8 12 15
5 3 5 3 4 4 6 5 4 4 4 5 4 2 4 5 5 3 5 5 7 10 12 9 4 2 2 4 3 4 4 6 7 5 8 8 8 1 2 1 6 12 11 14 16
3 5 5 4 1 3 5 5 8 9 2 9 5 6 6 3 3 7 5 5 10 3 8 10 5 9 8 3 7 4 4 5 7 6 7 8 6 5 4 6 7 10 13 14 16
4 2 3 4 5 8 4 7 10 11 7 10 3 13 9 5 7 4 5 7 6 11 2 6 7 4 5 3 4 6 9 10 11 7 14 8 9 8 10 11 9 9 13 15 15
3 4 4 3 6 5 8 8 9 11 4 7 11 16 11 5 5 6 10 5 4 10 7 6 4 5 5 6 7 5 8 12 9 5 6 8 6 4 5 8 9 14 16 17 18
3 3 2 4 5 4 3 5 6 10 5 5 11 12 11 5 15 16 14 12 11 6 5 5 1 4 3 3 5 6 11 10 5 5 10 7 8 7 5 9 13 15 18 19 21
Wind_Direction
342 339 343 344 344 345 343 345 345 341 335 334 334 330 328 326 320 271 237 223 174 195 107 317 313 107 91 33 63 118 70 157 196 172 162 145 137 21 348 134 66 144 126 119 142
348 344 338 339 343 342 342 343 341 338 334 332 330 328 326 328 300 252 240 214 203 133 146 147 137 133 81 186 38 90 122 197 182 164 164 145 124 137 116 133 95 105 137 138 151
359 354 351 347 342 343 342 341 337 336 332 330 327 325 324 328 304 250 249 201 188 169 135 109 103 266 136 128 161 134 164 177 196 162 126 126 97 110 124 169 203 153 130 115 96
350 345 344 339 336 336 336 333 331 330 326 327 325 322 321 117 269 301 339 160 159 145 112 106 111 124 134 158 147 116 127 155 163 140 121 138 124 89 45 185 137 132 121 119 112
341 336 335 332 331 331 331 328 325 319 319 320 319 321 346 316 253 308 80 127 114 117 142 151 155 160 184 174 107 116 95 62 77 84 66 84 73 115 71 54 120 110 106 104 104
343 341 336 332 330 329 327 323 317 314 311 309 309 316 240 257 218 349 118 110 125 125 156 163 185 183 147 85 101 100 85 81 52 71 72 114 122 80 181 114 115 114 109 114 126
338 335 333 331 331 327 324 320 316 310 304 296 284 252 246 237 156 358 185 177 168 157 149 204 163 140 141 96 161 106 88 49 19 32 101 106 22 52 147 135 116 120 123 121 120
346 338 332 329 328 326 321 315 311 310 302 275 213 190 247 245 217 310 170 252 192 204 271 178 155 122 145 113 58 87 64 113 270 94 133 69 181 141 155 138 135 133 130 130 135
339 339 337 335 329 324 318 312 306 305 357 129 120 190 262 319 245 218 160 186 160 175 248 42 111 103 77 96 62 13 150 125 137 190 125 99 138 196 172 142 132 140 144 140 124
343 341 338 335 330 324 319 307 293 269 154 203 226 306 261 225 267 192 171 139 140 122 114 82 58 94 49 114 187 159 107 85 150 185 96 126 175 161 171 153 151 138 168 134 130
340 338 336 336 332 324 324 338 18 352 324 202 206 271 307 318 261 218 149 118 107 97 160 112 113 188 191 179 158 139 129 128 164 163 99 254 153 189 155 137 150 145 142 161 129
339 337 335 335 330 329 351 43 59 304 298 242 244 257 263 244 296 252 134 139 147 174 117 54 218 207 159 166 143 141 134 127 70 120 101 158 146 140 191 193 177 163 166 162 127
342 338 336 336 330 29 310 44 337 324 264 278 211 215 206 162 227 242 166 134 138 139 177 167 223 152 152 161 140 187 160 179 149 132 59 114 21 189 221 195 170 185 176 171 165
340 340 337 340 24 334 287 338 334 294 305 266 224 242 173 152 249 210 183 135 162 175 152 223 212 154 164 183 149 164 194 137 137 124 177 174 230 222 204 208 197 192 191 184 169
338 335 334 334 293 315 289 328 320 69 9 261 195 256 195 164 160 220 181 74 164 166 139 224 179 157 185 194 160 196 140 151 159 111 115 193 97 248 153 216 218 211 199 193 178
334 331 326 332 264 247 302 302 16 46 258 326 147 156 122 263 217 126 142 95 142 128 148 204 172 158 179 171 174 126 98 52 60 81 67 200 151 254 182 208 220 208 201 184 170
331 324 324 227 234 298 317 327 48 146 316 332 345 28 223 186 215 164 169 175 157 132 183 182 226 232 136 124 118 128 114 89 18 302 214 155 135 238 217 233 206 205 192 174 167
328 324 307 231 269 352 321 126 85 271 281 334 316 307 193 164 239 176 169 190 223 113 143 178 199 180 191 168 166 185 149 149 160 169 182 167 217 247 215 197 205 198 160 159 170
333 326 309 281 242 149 14 197 201 224 351 321 313 302 280 225 187 167 188 201 195 163 149 147 251 159 171 145 150 210 183 162 99 27 89 206 281 307 192 193 177 157 159 173 173
331 340 287 328 165 211 49 239 279 344 341 322 329 359 357 334 250 179 172 197 190 183 139 204 180 207 169 110 75 162 153 105 20 143 186 266 284 231 241 210 170 168 182 180 172
34 22 334 339 330 9 164 262 298 321 352 331 331 310 341 352 288 260 207 284 188 193 174 172 130 245 132 201 156 132 138 65 112 143 161 151 256 217 221 191 187 196 183 176 174
19 37 312 335 39 59 7 316 331 320 318 273 273 250 294 309 305 319 242 218 196 171 203 188 153 200 199 307 189 153 160 146 157 238 92 153 254 230 255 221 175 182 169 162 165
353 287 309 359 62 338 306 306 286 325 323 319 307 332 339 313 319 324 326 300 324 178 173 170 238 78 58 354 358 148 158 121 106 92 186 146 256 185 14 182 167 152 156 157 159
42 15 337 20 98 337 334 339 351 330 329 336 284 315 325 307 262 305 315 311 328 329 182 140 154 176 196 167 146 142 146 146 139 159 165 214 164 193 183 173 155 152 154 160 167
26 306 7 331 337 338 315 5 2 6 343 359 355 10 339 285 329 327 345 313 333 354 74 120 189 168 197 171 144 166 176 173 193 176 194 203 190 202 189 192 168 151 148 154 167
45 4 345 293 299 336 358 8 1 348 306 351 353 327 325 291 18 317 345 337 342 336 16 6 235 141 211 205 182 192 202 191 203 142 85 156 209 209 106 104 143 163 165 172 177
342 2 323 297 328 346 354 332 327 334 291 284 329 311 304 350 318 286 274 267 264 291 329 5 125 102 228 168 127 283 205 181 165 166 143 162 211 159 157 171 175 175 179 183 183